Location: Petruro
(41.0333°N, 14.7833°E)
Time: 11:38:47
(UTC+00:00)

Cosmos 1812 - Pass Details

Date: 20 June 2021
Orbit: 516 x 520 km, 82.5° (Epoch: 28 July)

Event Time Altitude Azimuth Distance (km) Brightness Sun altitude
Rises 02:06:06 0° 352° (N) 2,644 6.9 -12.7°
Reaches altitude 10° 02:08:15 10° 353° (N) 1,752 6.0 -12.5°
Maximum altitude 02:12:05 87° 77° (ENE) 522 2.7 -12.0°
Drops below altitude 10° 02:15:54 10° 172° (S) 1,737 5.0 -11.5°
Enters shadow 02:16:59 - 173° (S) 2,183 5.5 -11.3°
